CZ-2D DEB, 44603

Orbit data source: Space-Track

CZ-2D DEB, 44603 is space debris in SSO originally from a launch on Fri, 11 Nov 2016 UTC launched from the Jiuquan Satellite Launch Center, China (JSC). Debris objects in space refer to the collection of defunct objects orbiting the Earth. Examples of debris include non-operational satellites, rocket bodies, and fragments generated from explosions, collisions, or faulty payload assembly.

Loading next visibility...
Identifier
44603, 2016-068C
Orbit
SSO
Last TLE update
10 hours ago
Origin
Manufacturer
Unknown
Mission
Spacecraft
Bus & Motor
Unknown
Mass
Unknown
Launch date (UTC)
2016-11-11 (9 years ago)
Launch vehicle
Unknown
Launch site
Jiuquan Satellite Launch Center, China (JSC)
Object type
Payload
Rocket body
Debris
Shape & HBR
Unknown
Radar Cross Section
Small (<0.1 m²)

Expand to show TLE details & history

TLE from 10 hours ago
0 CZ-2D DEB
1 44603U 16068C   25181.97647805  .00000154  00000-0  11954-3 0  9994
2 44603  98.5381   5.8159 0216478 129.8064 232.2377 13.93836092925195
Epoch: 2025-06-30T23:26Z
TLE epoch observation values (Epoch: 2025-06-30T23:26:07.703Z)
Latitude
-0.00007°
Longitude
95.00526°
Altitude
1,016.906 km
Speed
7.293 km/s
True Right ascension
00h 23m 15s
True Declination
0° 00' 00"
Sunlit
Object was in daylight at epoch
Visualization orbit readout
Latitude
9.228°
Longitude
94.01487°
Altitude
991.826 km
Speed
7.319 km/s
Apparent Right ascension
03h 07m 50s
Apparent Declination
-30° 11' 33"
Sunlit
Object is in daylight
Visualization observer readout
Local Sidereal Time
21:27:25
Azimuth
116.696° SE
Elevation
-15.434°
Doppler factor
1
Orbital elements
Apogee altitude
1,070.226 km
Perigee altitude
754.578 km
Semi-major axis
7,290.539 km
Eccentricity
0.02165
Inclination
98.5381°
RAAN
5.8159°
Arg. of periapsis
129.8064°
True anomaly
Unknown
Mean anomaly
232.2377°
Eccentric anomaly
Unknown
Mean motion
3.48661 °/min
Orbital period
103.25 mins
BSTAR
0.00011954
Loading maneuver chart data...
Loading SW <> Apogee altitude chart data...
Loading historical data...
Loading historical data...
Loading historical data...
Loading historical data...
Loading historical data...
Loading historical data...
Loading historical data...

CZ-2D DEB Visibility forecast

Observer location: undefined°, undefined°

Span
Click to sort rows by Start time (UTC) header in descending order
Start Az.
Max El. time (UTC)
Max El. Az.
Max El.
End time (UTC)
End Az.
10 mins2025-07-01 11:37:04.778Z139.131° SSE2025-07-01 11:42:04.778Z68.45° E35.418°2025-07-01 11:47:04.778Z0.498° NNE
7 mins2025-07-01 13:21:04.778Z224.185° SW2025-07-01 13:24:04.778Z263.562° W22.604°2025-07-01 13:28:04.778Z314.29° NW
6 mins2025-07-02 00:11:04.778Z61.106° ENE2025-07-02 00:13:04.778Z93.038° ESE21.074°2025-07-02 00:17:04.778Z146.137° SSE
7 mins2025-07-02 01:52:04.778Z348.849° N2025-07-02 01:55:04.778Z298.48° NW30.859°2025-07-02 01:59:04.778Z229.184° WSW
|